Location: Unspecified
(18.8655°S, 0.0000°E)
Time: 03:46:28
(UTC+00:00)

Vanguard 3 - Visible Passes

Search period start: 04 April 2026 00:00
Search period end: 14 April 2026 00:00
Orbit: 508 x 3205 km, 33.3° (Epoch: 28 March)

Date Brightness Start Highest point End Pass type
(mag) Time Alt. Az. Time Alt. Az. Time Alt. Az.
4 Apr 9.2 18:05:08 10° WSW 18:17:05 41° S 18:24:03 10° ESE visible
4 Apr 8.2 20:21:29 10° WSW 20:28:27 54° WSW 20:28:27 54° WSW visible
5 Apr 8.3 18:56:39 10° WSW 19:07:50 56° SSE 19:11:31 28° E visible
5 Apr 9.8 21:12:39 10° WSW 21:15:26 20° W 21:15:26 20° W visible
6 Apr 7.5 19:47:45 10° WSW 19:57:52 85° NNW 19:58:33 74° NE visible
7 Apr 8.6 18:22:26 10° WSW 18:35:18 61° SSE 18:41:42 14° E visible
7 Apr 9.0 20:39:10 10° WSW 20:45:38 34° WNW 20:45:38 34° WNW visible
8 Apr 8.1 19:13:46 10° WSW 19:25:25 83° NNW 19:28:51 34° NE visible
8 Apr 10.3 21:32:34 10° WNW 21:32:47 10° WNW 21:32:47 10° WNW visible
9 Apr 8.7 20:05:24 10° WSW 20:14:38 40° NW 20:16:03 36° NNW visible
10 Apr 8.5 18:39:33 10° WSW 18:52:48 81° NNW 18:59:21 14° NE visible
10 Apr 9.9 20:58:45 10° W 21:03:12 15° NW 21:03:18 15° NW visible
11 Apr 9.2 19:31:22 10° WSW 19:42:07 42° NW 19:46:40 20° NNE visible
12 Apr 8.9 18:05:09 10° WSW 18:20:00 80° NNW 18:28:06 10° NE visible
12 Apr 9.9 20:24:45 10° W 20:30:44 18° NW 20:34:02 13° NNW visible
13 Apr 9.5 18:57:07 10° WSW 19:09:25 45° NW 19:16:34 10° NNE visible
